Location: The Stocker AstroScience Center
(25.7579°N, 80.3725°W)
Time: 14:15:01
(UTC-04:00)

ISS - All Passes

Search period start: 22 September 2014 00:00
Search period end: 02 October 2014 00:00
Orbit: 413 x 416 km, 51.6° (Epoch: 22 September)

Date Brightness Start Highest point End Pass type
(mag) Time Alt. Az. Time Alt. Az. Time Alt. Az.
22 Sep - 01:33:29 10° SW 01:36:44 54° NW 01:39:59 10° NNE night (unlit)
22 Sep - 09:45:06 10° NNW 09:48:14 39° NE 09:51:21 10° ESE daylight
23 Sep - 00:44:35 10° SSW 00:47:52 64° SE 00:51:10 10° NE night (unlit)
23 Sep - 08:56:44 10° N 08:59:16 20° NE 09:01:48 10° E daylight
23 Sep - 10:33:18 10° WNW 10:35:52 21° SW 10:38:25 10° S daylight
23 Sep - 23:56:10 10° S 23:59:03 28° SE 00:01:57 10° ENE night (unlit)
24 Sep - 01:33:36 10° W 01:35:45 16° NW 01:37:54 10° N night (unlit)
24 Sep - 08:09:09 10° NNE 08:10:12 11° NE 08:11:16 10° ENE daylight
24 Sep - 09:43:52 10° NW 09:47:04 45° SW 09:50:14 10° SSE daylight
24 Sep - 23:08:34 10° SSE 23:10:16 13° SE 23:11:58 10° E night (unlit)
25 Sep - 00:43:46 10° WSW 00:46:43 29° NW 00:49:41 10° NNE night (unlit)
25 Sep - 08:54:52 10° NW 08:58:11 75° NE 09:01:29 10° SE daylight
25 Sep - 23:54:28 10° SW 23:57:45 65° NW 00:01:03 10° NE night (unlit)
26 Sep - 08:06:10 10° NNW 08:09:13 33° NE 08:12:15 10° ESE daylight
26 Sep - 09:44:22 10° WSW 09:45:38 12° SW 09:46:53 10° SSW daylight
26 Sep - 23:05:35 10° SSW 23:08:50 53° SE 23:12:04 10° NE night (unlit)
27 Sep - 00:45:25 10° NW 00:45:44 10° NW 00:46:02 10° NNW night (unlit)
27 Sep - 07:17:50 10° N 07:20:10 18° NE 07:22:29 10° E daylight
27 Sep - 08:54:03 10° WNW 08:56:48 24° SW 08:59:33 10° S daylight
27 Sep - 22:17:13 10° S 22:19:56 24° SE 22:22:40 10° ENE night (unlit)
27 Sep - 23:54:12 10° W 23:56:34 18° NW 23:58:57 10° N night (unlit)
28 Sep - 08:04:39 10° NW 08:07:54 55° SW 08:11:09 10° SSE daylight
28 Sep - 21:29:58 10° SE 21:31:05 11° SE 21:32:13 10° ESE night (unlit)
28 Sep - 23:04:25 10° WSW 23:07:29 34° NW 23:10:33 10° NNE night (unlit)
29 Sep - 07:15:39 10° NW 07:18:56 62° NE 07:22:12 10° SE daylight
29 Sep - 22:15:08 10° SW 22:18:27 78° NW 22:21:46 10° NE night (unlit)
30 Sep - 06:26:56 10° NNW 06:29:52 28° NE 06:32:48 10° ESE visible
30 Sep - 08:04:32 10° W 08:06:20 14° SW 08:08:07 10° SSW daylight
30 Sep - 21:26:17 10° SSW 21:29:27 43° SE 21:32:38 10° NE night (unlit)
30 Sep - 23:05:04 10° WNW 23:06:17 12° NW 23:07:31 10° NNW night (unlit)
01 Oct - 05:38:39 10° N 05:40:43 15° NE 05:42:47 10° E visible
01 Oct - 07:14:29 10° WNW 07:17:25 29° SW 07:20:19 10° S daylight
01 Oct - 20:38:00 10° S 20:40:30 20° SE 20:43:01 10° ENE visible
01 Oct - 22:14:29 10° W 22:17:04 21° NW 22:19:40 10° N night (unlit)
